SUD1A ZULS-ZGGG

Flight info

Callsign SUD1A
Flight time 3h 31m
Altitude 37100
Route LXA W500 DM W9 CZH B213 CTU W237 IDBOR B330 KWE W181 DUDIT A599 GYA GYA8
Aircraft A320/M-SDFGHILORVWY/S

Departure

Time 2026-04-22 13:42
Airport Lhasa Gonggar International Airport (ZULS)

Arrival

Time 2026-04-22 17:13
Airport Guangzhou Baiyun International Airport (ZGGG)
Time Latitude Longitude Altitude Speed Heading
2026-04-22 13:19 29.29339 90.89336 11519 ft 0 kts 142°
2026-04-22 13:25 29.29340 90.89335 11535 ft 1 kts 142°
2026-04-22 13:26 29.29354 90.89322 11517 ft 3 kts 137°
2026-04-22 13:26 29.29368 90.89306 11523 ft 3 kts 124°
2026-04-22 13:26 29.29376 90.89288 11519 ft 3 kts 88°
2026-04-22 13:26 29.29375 90.89276 11522 ft 2 kts 22°
2026-04-22 13:27 29.29372 90.89275 11524 ft 0 kts 18°
2026-04-22 13:32 29.29373 90.89275 11524 ft 0 kts 18°
2026-04-22 13:32 29.29385 90.89280 11522 ft 6 kts 18°
2026-04-22 13:32 29.29449 90.89304 11526 ft 13 kts 19°
2026-04-22 13:33 29.29515 90.89389 11540 ft 19 kts 88°
2026-04-22 13:33 29.29521 90.89560 11527 ft 19 kts 83°
2026-04-22 13:33 29.29606 90.89626 11535 ft 15 kts 44°
2026-04-22 13:33 29.29619 90.89739 11539 ft 14 kts 89°
2026-04-22 13:34 29.29621 90.89854 11528 ft 15 kts 89°
2026-04-22 13:34 29.29623 90.89975 11534 ft 16 kts 89°
2026-04-22 13:34 29.29625 90.90102 11540 ft 16 kts 89°
2026-04-22 13:34 29.29627 90.90239 11540 ft 20 kts 89°
2026-04-22 13:35 29.29630 90.90428 11538 ft 27 kts 89°
2026-04-22 13:35 29.29633 90.90645 11537 ft 27 kts 89°
2026-04-22 13:35 29.29637 90.90859 11529 ft 27 kts 89°
2026-04-22 13:35 29.29640 90.91071 11536 ft 26 kts 89°
2026-04-22 13:36 29.29643 90.91279 11535 ft 26 kts 89°
2026-04-22 13:36 29.29646 90.91484 11530 ft 25 kts 89°
2026-04-22 13:36 29.29649 90.91685 11516 ft 25 kts 89°
2026-04-22 13:36 29.29652 90.91886 11505 ft 25 kts 89°
2026-04-22 13:37 29.29655 90.92086 11513 ft 25 kts 90°
2026-04-22 13:37 29.29658 90.92287 11512 ft 25 kts 88°
2026-04-22 13:37 29.29661 90.92488 11507 ft 25 kts 89°
2026-04-22 13:37 29.29664 90.92645 11503 ft 20 kts 89°
2026-04-22 13:38 29.29666 90.92796 11513 ft 15 kts 89°
2026-04-22 13:38 29.29669 90.93011 11509 ft 12 kts 89°
2026-04-22 13:38 29.29671 90.93126 11513 ft 17 kts 89°
2026-04-22 13:39 29.29676 90.93239 11513 ft 13 kts 74°
2026-04-22 13:39 29.29744 90.93269 11509 ft 6 kts 358°
2026-04-22 13:39 29.29747 90.93269 11509 ft 1 kts 358°
2026-04-22 13:39 29.29753 90.93268 11502 ft 1 kts 358°
2026-04-22 13:40 29.29764 90.93268 11505 ft 2 kts 358°
2026-04-22 13:40 29.29810 90.93267 11511 ft 13 kts 356°
2026-04-22 13:40 29.29837 90.93193 11514 ft 9 kts 278°
2026-04-22 13:40 29.29838 90.93163 11501 ft 0 kts 269°
2026-04-22 13:41 29.29835 90.93058 11508 ft 42 kts 269°
2026-04-22 13:41 29.29827 90.92464 11515 ft 104 kts 269°
2026-04-22 13:41 29.29811 90.91443 11535 ft 154 kts 269°
2026-04-22 13:41 29.29791 90.90041 11540 ft 196 kts 269°
2026-04-22 13:42 29.29772 90.88433 12031 ft 201 kts 270°
2026-04-22 13:42 29.29746 90.86810 12910 ft 201 kts 269°
2026-04-22 13:42 29.29719 90.85232 13458 ft 202 kts 268°
2026-04-22 13:42 29.29433 90.83583 13596 ft 218 kts 249°
2026-04-22 13:43 29.28861 90.81937 13685 ft 234 kts 257°
2026-04-22 13:43 29.28739 90.80028 13778 ft 250 kts 280°
2026-04-22 13:43 29.29287 90.78142 14171 ft 252 kts 303°
2026-04-22 13:43 29.30418 90.76628 14697 ft 252 kts 324°
2026-04-22 13:44 29.31972 90.75703 15479 ft 257 kts 345°
2026-04-22 13:44 29.33765 90.75531 15922 ft 263 kts
2026-04-22 13:44 29.35500 90.76203 16193 ft 266 kts 32°
2026-04-22 13:44 29.36846 90.77621 16709 ft 264 kts 53°
2026-04-22 13:45 29.37608 90.79534 17308 ft 268 kts 76°
2026-04-22 13:45 29.37646 90.81678 17829 ft 275 kts 99°
2026-04-22 13:45 29.37207 90.83843 18178 ft 286 kts 96°
2026-04-22 13:45 29.37027 90.86163 18395 ft 298 kts 90°
2026-04-22 13:46 29.36717 90.88540 18810 ft 306 kts 102°
2026-04-22 13:46 29.35987 90.90851 19285 ft 312 kts 114°
2026-04-22 13:46 29.34847 90.92986 19762 ft 317 kts 126°
2026-04-22 13:46 29.33566 90.95053 20243 ft 318 kts 119°
2026-04-22 13:47 29.32529 90.97293 20750 ft 319 kts 111°
2026-04-22 13:47 29.31792 90.99692 21252 ft 319 kts 102°
2026-04-22 13:47 29.31375 91.02187 21754 ft 320 kts 93°
2026-04-22 13:47 29.31193 91.04750 22075 ft 330 kts 92°
2026-04-22 13:48 29.31012 91.07430 22201 ft 345 kts 92°
2026-04-22 13:48 29.30814 91.10231 22332 ft 361 kts 92°
2026-04-22 13:48 29.30601 91.13155 22464 ft 375 kts 92°
2026-04-22 13:48 29.30377 91.16188 22596 ft 389 kts 93°
2026-04-22 13:49 29.30146 91.19336 22731 ft 403 kts 93°
2026-04-22 13:49 29.29904 91.22591 22864 ft 417 kts 93°
2026-04-22 13:49 29.29653 91.25948 23008 ft 429 kts 93°
2026-04-22 13:49 29.29394 91.29377 23327 ft 435 kts 93°
2026-04-22 13:50 29.29221 91.31666 23581 ft 437 kts 93°
2026-04-22 13:50 29.28873 91.36336 24051 ft 442 kts 93°
2026-04-22 13:50 29.28612 91.39852 24395 ft 445 kts 93°
2026-04-22 13:50 29.28350 91.43391 24732 ft 447 kts 93°
2026-04-22 13:51 29.28089 91.46904 25060 ft 450 kts 93°
2026-04-22 13:51 29.27823 91.50488 25388 ft 453 kts 94°
2026-04-22 13:51 29.27545 91.54089 25719 ft 456 kts 94°
2026-04-22 13:51 29.27244 91.57710 26046 ft 458 kts 94°
2026-04-22 13:52 29.26924 91.61353 26366 ft 461 kts 95°
2026-04-22 13:52 29.26600 91.65011 26680 ft 463 kts 95°
2026-04-22 13:52 29.26276 91.68688 26987 ft 466 kts 95°
2026-04-22 13:52 29.25951 91.72386 27289 ft 468 kts 95°
2026-04-22 13:53 29.25627 91.76105 27587 ft 470 kts 94°
2026-04-22 13:53 29.25377 91.79845 27873 ft 472 kts 92°
2026-04-22 13:53 29.25235 91.83611 28152 ft 474 kts 90°
2026-04-22 13:53 29.25166 91.87395 28432 ft 476 kts 90°
2026-04-22 13:54 29.25126 91.91196 28703 ft 479 kts 89°
2026-04-22 13:54 29.25086 91.95030 28867 ft 484 kts 89°
2026-04-22 13:54 29.25024 91.98891 29074 ft 487 kts 90°
2026-04-22 13:54 29.24934 92.02779 29296 ft 490 kts 90°
2026-04-22 13:55 29.24824 92.06688 29545 ft 492 kts 91°
2026-04-22 13:55 29.24699 92.10610 29824 ft 493 kts 91°
2026-04-22 13:55 29.24568 92.14531 30170 ft 493 kts 91°
2026-04-22 13:55 29.24481 92.17124 30338 ft 492 kts 91°
2026-04-22 13:56 29.24319 92.22374 30654 ft 494 kts 91°
2026-04-22 13:56 29.24247 92.24976 30826 ft 494 kts 91°
2026-04-22 13:56 29.24147 92.28904 31090 ft 494 kts 91°
2026-04-22 13:56 29.24050 92.32834 31398 ft 493 kts 91°
2026-04-22 13:57 29.23951 92.36755 31690 ft 492 kts 91°
2026-04-22 13:57 29.23849 92.40675 31880 ft 493 kts 91°
2026-04-22 13:57 29.23741 92.44596 32145 ft 493 kts 91°
2026-04-22 13:57 29.23629 92.48523 32368 ft 494 kts 91°
2026-04-22 13:58 29.23515 92.52454 32635 ft 494 kts 92°
2026-04-22 13:58 29.23398 92.56389 32914 ft 494 kts 92°
2026-04-22 13:58 29.23285 92.60318 33178 ft 494 kts 91°
2026-04-22 13:58 29.23196 92.64261 33418 ft 495 kts 91°
2026-04-22 13:59 29.23113 92.68204 33649 ft 496 kts 91°
2026-04-22 13:59 29.23045 92.72163 33790 ft 499 kts 91°
2026-04-22 13:59 29.22983 92.76139 34007 ft 500 kts 91°
2026-04-22 13:59 29.22924 92.80125 34226 ft 501 kts 91°
2026-04-22 14:00 29.22862 92.84116 34438 ft 501 kts 91°
2026-04-22 14:00 29.22795 92.88103 34646 ft 501 kts 91°
2026-04-22 14:00 29.22733 92.92089 34875 ft 502 kts 91°
2026-04-22 14:00 29.22663 92.96083 35101 ft 502 kts 91°
2026-04-22 14:01 29.22590 93.00080 35331 ft 502 kts 91°
2026-04-22 14:01 29.22515 93.04070 35526 ft 502 kts 91°
2026-04-22 14:01 29.22435 93.08066 35723 ft 503 kts 91°
2026-04-22 14:01 29.22336 93.12069 35843 ft 503 kts 91°
2026-04-22 14:02 29.22237 93.16072 35968 ft 505 kts 91°
2026-04-22 14:02 29.22144 93.20096 36093 ft 506 kts 91°
2026-04-22 14:02 29.22052 93.24133 36237 ft 509 kts 91°
2026-04-22 14:02 29.21955 93.28185 36374 ft 510 kts 91°
2026-04-22 14:03 29.21856 93.32242 36509 ft 510 kts 91°
2026-04-22 14:03 29.21764 93.36301 36666 ft 511 kts 91°
2026-04-22 14:03 29.21668 93.40375 36830 ft 512 kts 91°
2026-04-22 14:03 29.21574 93.44375 36998 ft 509 kts 91°
2026-04-22 14:04 29.21372 93.52502 37061 ft 512 kts 92°
2026-04-22 14:04 29.21210 93.60687 37068 ft 515 kts 91°
2026-04-22 14:05 29.21011 93.68851 37070 ft 513 kts 91°
2026-04-22 14:06 29.20727 93.81095 37077 ft 513 kts 91°
2026-04-22 14:06 29.20578 93.89250 37075 ft 512 kts 91°
2026-04-22 14:07 29.20413 93.97398 37077 ft 512 kts 91°
2026-04-22 14:07 29.20246 94.05544 37073 ft 512 kts 91°
2026-04-22 14:08 29.20080 94.13689 37068 ft 512 kts 91°
2026-04-22 14:08 29.19917 94.21836 37064 ft 512 kts 91°
2026-04-22 14:09 29.19779 94.29989 37038 ft 512 kts 90°
2026-04-22 14:09 29.19628 94.38156 37052 ft 514 kts 91°
2026-04-22 14:10 29.19460 94.46327 37048 ft 514 kts 91°
2026-04-22 14:10 29.19326 94.54510 37059 ft 514 kts 91°
2026-04-22 14:11 29.19202 94.62692 37031 ft 514 kts 91°
2026-04-22 14:11 29.19073 94.70865 37044 ft 513 kts 91°
2026-04-22 14:12 29.18934 94.79039 37034 ft 514 kts 91°
2026-04-22 14:12 29.18805 94.87211 37033 ft 513 kts 91°
2026-04-22 14:13 29.18659 94.95379 37026 ft 513 kts 91°
2026-04-22 14:13 29.18552 95.03543 37006 ft 513 kts 91°
2026-04-22 14:14 29.18467 95.11709 37003 ft 514 kts 91°
2026-04-22 14:14 29.18363 95.19884 36996 ft 513 kts 91°
2026-04-22 14:15 29.18274 95.28040 36988 ft 513 kts 91°
2026-04-22 14:15 29.18183 95.36218 37029 ft 515 kts 90°
2026-04-22 14:16 29.18059 95.44418 37011 ft 515 kts 91°
2026-04-22 14:16 29.17940 95.52623 37031 ft 515 kts 91°
2026-04-22 14:17 29.17817 95.60811 37022 ft 515 kts 91°
2026-04-22 14:17 29.17694 95.69008 37033 ft 516 kts 91°
2026-04-22 14:18 29.17573 95.77216 37036 ft 516 kts 91°
2026-04-22 14:18 29.17447 95.85430 37067 ft 516 kts 91°
2026-04-22 14:19 29.17320 95.93648 37068 ft 517 kts 91°
2026-04-22 14:19 29.17197 96.01850 37083 ft 516 kts 91°
2026-04-22 14:20 29.17022 96.14183 37075 ft 517 kts 91°
2026-04-22 14:20 29.16937 96.22427 37099 ft 518 kts 91°
2026-04-22 14:21 29.16800 96.34788 37115 ft 518 kts 91°
2026-04-22 14:22 29.16661 96.47078 37116 ft 517 kts 91°
2026-04-22 14:23 29.16532 96.59455 37125 ft 516 kts 91°
2026-04-22 14:23 29.16457 96.67600 37125 ft 515 kts 91°
2026-04-22 14:24 29.16395 96.75806 37120 ft 516 kts 90°
2026-04-22 14:24 29.16371 96.83977 37115 ft 513 kts 90°
2026-04-22 14:25 29.16301 96.92169 37118 ft 517 kts 91°
2026-04-22 14:25 29.16238 97.00406 37125 ft 518 kts 90°
2026-04-22 14:26 29.16172 97.08637 37129 ft 516 kts 91°
2026-04-22 14:26 29.16110 97.16848 37125 ft 516 kts 90°
2026-04-22 14:27 29.16036 97.25068 37120 ft 517 kts 90°
2026-04-22 14:27 29.15978 97.33293 37125 ft 517 kts 90°
2026-04-22 14:28 29.15923 97.41517 37123 ft 517 kts 91°
2026-04-22 14:28 29.15854 97.49740 37100 ft 516 kts 91°
2026-04-22 14:29 29.15798 97.57960 37112 ft 517 kts 90°
2026-04-22 14:29 29.15748 97.66179 37081 ft 516 kts 90°
2026-04-22 14:30 29.15716 97.74386 37098 ft 517 kts 90°
2026-04-22 14:30 29.15675 97.82558 37083 ft 517 kts 91°
2026-04-22 14:31 29.15640 97.90789 37066 ft 517 kts 90°
2026-04-22 14:31 29.15604 97.99016 37074 ft 518 kts 91°
2026-04-22 14:32 29.15585 98.07263 37081 ft 518 kts 91°
2026-04-22 14:32 29.15562 98.15509 37092 ft 519 kts 90°
2026-04-22 14:33 29.15535 98.23758 37107 ft 519 kts 90°
2026-04-22 14:33 29.15516 98.32006 37115 ft 519 kts 90°
2026-04-22 14:34 29.15515 98.40255 37097 ft 518 kts 90°
2026-04-22 14:34 29.15536 98.48507 37088 ft 520 kts 90°
2026-04-22 14:35 29.15546 98.56775 37092 ft 520 kts 90°
2026-04-22 14:35 29.15590 98.65047 37101 ft 520 kts 90°
2026-04-22 14:36 29.15611 98.73324 37094 ft 520 kts 90°
2026-04-22 14:36 29.15645 98.81546 37076 ft 521 kts 90°
2026-04-22 14:37 29.15702 98.89893 37072 ft 523 kts 90°
2026-04-22 14:37 29.15743 98.98162 37070 ft 524 kts 90°
2026-04-22 14:38 29.15784 99.06489 37070 ft 524 kts 90°
2026-04-22 14:38 29.15851 99.14826 37081 ft 524 kts 90°
2026-04-22 14:39 29.15878 99.23149 37097 ft 523 kts 90°
2026-04-22 14:39 29.15901 99.31462 37097 ft 522 kts 90°
2026-04-22 14:40 29.15934 99.43896 37100 ft 521 kts 90°
2026-04-22 14:40 29.15954 99.52185 37089 ft 522 kts 90°
2026-04-22 14:41 29.15964 99.60493 37096 ft 523 kts 90°
2026-04-22 14:41 29.15989 99.68804 37101 ft 522 kts 90°
2026-04-22 14:42 29.16011 99.75715 37107 ft 523 kts 90°
2026-04-22 14:42 29.16038 99.84034 37097 ft 523 kts 90°
2026-04-22 14:43 29.16076 99.92369 37093 ft 525 kts 90°
2026-04-22 14:43 29.16100 100.00722 37092 ft 525 kts 90°
2026-04-22 14:44 29.16129 100.09065 37107 ft 524 kts 90°
2026-04-22 14:44 29.16172 100.17403 37100 ft 524 kts 90°
2026-04-22 14:45 29.16206 100.25731 37088 ft 523 kts 90°
2026-04-22 14:45 29.16235 100.34045 37058 ft 522 kts 90°
2026-04-22 14:46 29.16268 100.42354 37061 ft 522 kts 90°
2026-04-22 14:46 29.16300 100.50647 37023 ft 521 kts 90°
2026-04-22 14:47 29.16307 100.58934 37012 ft 521 kts 90°
2026-04-22 14:47 29.16350 100.67228 36992 ft 522 kts 90°
2026-04-22 14:48 29.16407 100.75531 36963 ft 522 kts 90°
2026-04-22 14:48 29.16465 100.83825 36976 ft 522 kts 90°
2026-04-22 14:49 29.16529 100.92129 36972 ft 522 kts 90°
2026-04-22 14:49 29.16607 101.00436 36968 ft 522 kts 90°
2026-04-22 14:50 29.16694 101.08654 36973 ft 519 kts 90°
2026-04-22 14:50 29.16775 101.16936 36976 ft 522 kts 90°
2026-04-22 14:51 29.16849 101.25239 36995 ft 522 kts 90°
2026-04-22 14:51 29.16928 101.33534 37004 ft 521 kts 90°
2026-04-22 14:52 29.16998 101.41841 36999 ft 523 kts 90°
2026-04-22 14:52 29.17099 101.50150 37012 ft 523 kts 90°
2026-04-22 14:53 29.17219 101.58468 37019 ft 524 kts 90°
2026-04-22 14:53 29.17307 101.66822 37058 ft 526 kts 90°
2026-04-22 14:54 29.17434 101.75188 37063 ft 525 kts 90°
2026-04-22 14:54 29.17616 101.83548 37086 ft 526 kts 90°
2026-04-22 14:55 29.17783 101.91914 37132 ft 526 kts 90°
2026-04-22 14:55 29.17901 102.00294 37120 ft 526 kts 90°
2026-04-22 14:56 29.18043 102.08679 37137 ft 527 kts 90°
2026-04-22 14:56 29.18212 102.17046 37151 ft 526 kts 90°
2026-04-22 14:57 29.18362 102.25412 37163 ft 526 kts 90°
2026-04-22 14:57 29.18516 102.33800 37153 ft 527 kts 90°
2026-04-22 14:58 29.18665 102.42182 37130 ft 527 kts 90°
2026-04-22 14:58 29.18853 102.50572 37121 ft 528 kts 90°
2026-04-22 14:59 29.19068 102.58984 37135 ft 530 kts 90°
2026-04-22 14:59 29.19249 102.67352 37145 ft 529 kts 90°
2026-04-22 15:00 29.19422 102.75780 37154 ft 530 kts 90°
2026-04-22 15:00 29.19626 102.84205 37163 ft 529 kts 89°
2026-04-22 15:01 29.19837 102.92619 37202 ft 529 kts 90°
2026-04-22 15:01 29.20069 103.01005 37170 ft 526 kts 89°
2026-04-22 15:02 29.20311 103.09380 37174 ft 526 kts 90°
2026-04-22 15:02 29.20530 103.17750 37171 ft 526 kts 89°
2026-04-22 15:03 29.20769 103.26131 37162 ft 526 kts 89°
2026-04-22 15:03 29.21007 103.34508 37161 ft 527 kts 89°
2026-04-22 15:04 29.21221 103.42891 37153 ft 527 kts 89°
2026-04-22 15:04 29.21453 103.51275 37148 ft 527 kts 89°
2026-04-22 15:05 29.21644 103.59664 37135 ft 528 kts 89°
2026-04-22 15:05 29.21822 103.68063 37120 ft 528 kts 89°
2026-04-22 15:06 29.22010 103.76471 37120 ft 529 kts 89°
2026-04-22 15:06 29.22203 103.84884 37106 ft 529 kts 89°
2026-04-22 15:07 29.22379 103.93256 37104 ft 530 kts 89°
2026-04-22 15:07 29.22546 104.01760 37097 ft 531 kts 89°
2026-04-22 15:08 29.22714 104.10164 37096 ft 532 kts 89°
2026-04-22 15:08 29.22887 104.18635 37097 ft 533 kts 89°
2026-04-22 15:09 29.23058 104.27123 37090 ft 534 kts 89°
2026-04-22 15:09 29.23225 104.35625 37086 ft 535 kts 89°
2026-04-22 15:10 29.23394 104.44144 37086 ft 536 kts 89°
2026-04-22 15:10 29.23564 104.52675 37087 ft 536 kts 89°
2026-04-22 15:11 29.23738 104.61209 37088 ft 536 kts 89°
2026-04-22 15:11 29.23913 104.69743 37090 ft 536 kts 89°
2026-04-22 15:12 29.24087 104.78280 37092 ft 536 kts 89°
2026-04-22 15:12 29.24265 104.86816 37092 ft 536 kts 89°
2026-04-22 15:13 29.24447 104.95359 37093 ft 537 kts 89°
2026-04-22 15:13 29.24636 105.03907 37085 ft 538 kts 89°
2026-04-22 15:14 29.24828 105.12473 37111 ft 538 kts 89°
2026-04-22 15:14 29.25038 105.21043 37087 ft 539 kts 89°
2026-04-22 15:15 29.25252 105.29615 37090 ft 539 kts 89°
2026-04-22 15:15 29.25447 105.38141 37073 ft 540 kts 89°
2026-04-22 15:16 29.25644 105.46801 37071 ft 540 kts 89°
2026-04-22 15:16 29.25842 105.55347 37068 ft 541 kts 89°
2026-04-22 15:17 29.26044 105.63962 37077 ft 541 kts 89°
2026-04-22 15:17 29.26232 105.72585 37068 ft 542 kts 89°
2026-04-22 15:18 29.26418 105.81210 37071 ft 542 kts 89°
2026-04-22 15:18 29.26607 105.89844 37071 ft 542 kts 89°
2026-04-22 15:19 29.26798 105.98485 37062 ft 543 kts 89°
2026-04-22 15:19 29.26973 106.07125 37061 ft 543 kts 89°
2026-04-22 15:20 29.27150 106.15770 37066 ft 543 kts 89°
2026-04-22 15:20 29.27335 106.24422 37060 ft 543 kts 89°
2026-04-22 15:21 29.27521 106.33075 37063 ft 544 kts 89°
2026-04-22 15:21 29.27695 106.41730 37057 ft 544 kts 89°
2026-04-22 15:22 29.27861 106.50389 37062 ft 544 kts 89°
2026-04-22 15:22 29.28028 106.59053 37071 ft 544 kts 89°
2026-04-22 15:23 29.28197 106.67718 37083 ft 544 kts 89°
2026-04-22 15:23 29.28364 106.76377 37072 ft 544 kts 89°
2026-04-22 15:24 29.28533 106.85046 37081 ft 544 kts 89°
2026-04-22 15:24 29.28701 106.93713 37081 ft 544 kts 89°
2026-04-22 15:25 29.28873 107.02382 37081 ft 544 kts 89°
2026-04-22 15:25 29.29047 107.11045 37092 ft 544 kts 89°
2026-04-22 15:26 29.29217 107.19706 37088 ft 544 kts 89°
2026-04-22 15:26 29.29393 107.28302 37094 ft 543 kts 89°
2026-04-22 15:27 29.29573 107.36951 37087 ft 543 kts 88°
2026-04-22 15:27 29.29760 107.45595 37071 ft 542 kts 88°
2026-04-22 15:28 29.29962 107.54234 37086 ft 542 kts 89°
2026-04-22 15:28 29.30170 107.62871 37079 ft 543 kts 88°
2026-04-22 15:29 29.30376 107.71511 37074 ft 542 kts 88°
2026-04-22 15:30 29.30667 107.83065 37068 ft 542 kts 88°
2026-04-22 15:30 29.30893 107.91648 37061 ft 543 kts 88°
2026-04-22 15:31 29.31121 108.00294 37070 ft 544 kts 88°
2026-04-22 15:31 29.31343 108.08948 37062 ft 543 kts 88°
2026-04-22 15:32 29.31567 108.17606 37069 ft 543 kts 88°
2026-04-22 15:32 29.31789 108.26266 37074 ft 544 kts 88°
2026-04-22 15:33 29.32017 108.34930 37076 ft 544 kts 88°
2026-04-22 15:33 29.32246 108.43592 37070 ft 544 kts 88°
2026-04-22 15:34 29.32475 108.52261 37071 ft 544 kts 88°
2026-04-22 15:34 29.32709 108.60918 37075 ft 544 kts 88°
2026-04-22 15:35 29.32940 108.69585 37071 ft 544 kts 88°
2026-04-22 15:35 29.33177 108.78253 37078 ft 544 kts 88°
2026-04-22 15:36 29.33418 108.86915 37088 ft 544 kts 88°
2026-04-22 15:36 29.33659 108.95572 37077 ft 543 kts 88°
2026-04-22 15:37 29.33900 109.04226 37081 ft 543 kts 88°
2026-04-22 15:37 29.34141 109.12864 37062 ft 543 kts 88°
2026-04-22 15:38 29.34385 109.21515 37060 ft 544 kts 88°
2026-04-22 15:38 29.34757 109.34505 37067 ft 544 kts 88°
2026-04-22 15:39 29.35000 109.43168 37078 ft 544 kts 88°
2026-04-22 15:39 29.35242 109.51830 37066 ft 544 kts 88°
2026-04-22 15:40 29.35478 109.60438 37079 ft 544 kts 88°
2026-04-22 15:40 29.35718 109.69112 37082 ft 544 kts 88°
2026-04-22 15:41 29.35959 109.77785 37077 ft 544 kts 88°
2026-04-22 15:41 29.36205 109.86461 37087 ft 545 kts 88°
2026-04-22 15:42 29.36442 109.95140 37091 ft 545 kts 88°
2026-04-22 15:42 29.36673 110.03822 37099 ft 545 kts 88°
2026-04-22 15:43 29.36905 110.12509 37101 ft 545 kts 88°
2026-04-22 15:43 29.37158 110.21193 37071 ft 545 kts 88°
2026-04-22 15:44 29.37423 110.29883 37123 ft 546 kts 88°
2026-04-22 15:44 29.37646 110.38578 37131 ft 545 kts 88°
2026-04-22 15:45 29.37857 110.47249 37103 ft 544 kts 88°
2026-04-22 15:45 29.38086 110.55909 37091 ft 543 kts 88°
2026-04-22 15:46 29.38320 110.64560 37106 ft 543 kts 88°
2026-04-22 15:46 29.38556 110.73223 37109 ft 543 kts 88°
2026-04-22 15:47 29.38796 110.81877 37074 ft 543 kts 88°
2026-04-22 15:47 29.39063 110.90532 37088 ft 543 kts 88°
2026-04-22 15:48 29.39335 110.99183 37098 ft 543 kts 88°
2026-04-22 15:48 29.39610 111.07839 37101 ft 543 kts 88°
2026-04-22 15:49 29.39890 111.16498 37077 ft 543 kts 88°
2026-04-22 15:49 29.40180 111.25151 37091 ft 543 kts 88°
2026-04-22 15:50 29.40480 111.33798 37092 ft 543 kts 88°
2026-04-22 15:50 29.40776 111.42448 37090 ft 543 kts 88°
2026-04-22 15:51 29.41072 111.51096 37094 ft 543 kts 88°
2026-04-22 15:51 29.41370 111.59742 37094 ft 543 kts 88°
2026-04-22 15:52 29.41672 111.68393 37094 ft 543 kts 88°
2026-04-22 15:52 29.41978 111.77045 37094 ft 543 kts 88°
2026-04-22 15:53 29.42284 111.85688 37071 ft 543 kts 88°
2026-04-22 15:53 29.42591 111.94340 37080 ft 543 kts 88°
2026-04-22 15:54 29.42899 112.02928 37087 ft 543 kts 88°
2026-04-22 15:54 29.43214 112.11581 37091 ft 543 kts 88°
2026-04-22 15:55 29.43524 112.20230 37085 ft 543 kts 87°
2026-04-22 15:55 29.43832 112.28880 37096 ft 542 kts 87°
2026-04-22 15:56 29.44143 112.37526 37091 ft 542 kts 87°
2026-04-22 15:56 29.44458 112.46168 37059 ft 542 kts 87°
2026-04-22 15:57 29.44766 112.54807 37081 ft 542 kts 87°
2026-04-22 15:57 29.45073 112.63440 37092 ft 541 kts 87°
2026-04-22 15:58 29.45384 112.72072 37093 ft 541 kts 87°
2026-04-22 15:58 29.45697 112.80696 37089 ft 541 kts 87°
2026-04-22 15:59 29.46011 112.89316 37095 ft 540 kts 87°
2026-04-22 15:59 29.46330 112.97919 37084 ft 538 kts 87°
2026-04-22 16:00 29.46657 113.06486 37083 ft 537 kts 87°
2026-04-22 16:00 29.46987 113.15050 37080 ft 537 kts 87°
2026-04-22 16:01 29.47318 113.23612 37090 ft 537 kts 87°
2026-04-22 16:01 29.47652 113.32166 37091 ft 537 kts 87°
2026-04-22 16:02 29.47988 113.40724 37087 ft 537 kts 87°
2026-04-22 16:02 29.48327 113.49269 37076 ft 536 kts 87°
2026-04-22 16:03 29.48672 113.57809 37091 ft 535 kts 87°
2026-04-22 16:03 29.49174 113.66319 37090 ft 533 kts 77°
2026-04-22 16:04 29.50232 113.70370 37089 ft 527 kts 62°
2026-04-22 16:04 29.52030 113.73981 37082 ft 517 kts 47°
2026-04-22 16:04 29.55736 113.81008 37060 ft 525 kts 73°
2026-04-22 16:05 29.56165 113.83740 37092 ft 526 kts 87°
2026-04-22 16:05 29.55528 113.89237 37079 ft 518 kts 113°
2026-04-22 16:05 29.54067 113.92978 37062 ft 511 kts 124°
2026-04-22 16:05 29.52122 113.96352 37029 ft 503 kts 135°
2026-04-22 16:06 29.49719 113.99204 37035 ft 491 kts 149°
2026-04-22 16:06 29.46942 114.01270 37033 ft 475 kts 164°
2026-04-22 16:06 29.43880 114.02478 37028 ft 458 kts 178°
2026-04-22 16:06 29.40777 114.02846 37031 ft 442 kts 190°
2026-04-22 16:07 29.37772 114.02495 37035 ft 429 kts 201°
2026-04-22 16:07 29.34868 114.01740 37037 ft 428 kts 202°
2026-04-22 16:07 29.29044 114.00232 37044 ft 430 kts 201°
2026-04-22 16:08 29.23188 113.98737 37040 ft 432 kts 202°
2026-04-22 16:08 29.17317 113.97238 37055 ft 432 kts 202°
2026-04-22 16:09 29.11442 113.95723 37063 ft 433 kts 202°
2026-04-22 16:09 29.05566 113.94211 37069 ft 433 kts 202°
2026-04-22 16:10 28.99677 113.92704 37072 ft 433 kts 202°
2026-04-22 16:10 28.93798 113.91194 37076 ft 433 kts 202°
2026-04-22 16:11 28.87911 113.89684 37079 ft 434 kts 201°
2026-04-22 16:11 28.82020 113.88184 37080 ft 434 kts 201°
2026-04-22 16:12 28.76127 113.86683 37078 ft 434 kts 201°
2026-04-22 16:12 28.70242 113.85182 37068 ft 433 kts 202°
2026-04-22 16:13 28.64365 113.83684 37083 ft 433 kts 202°
2026-04-22 16:13 28.58493 113.82193 37085 ft 432 kts 202°
2026-04-22 16:14 28.52627 113.80700 37082 ft 432 kts 202°
2026-04-22 16:14 28.46773 113.79211 37039 ft 429 kts 203°
2026-04-22 16:15 28.40949 113.77736 37072 ft 430 kts 204°
2026-04-22 16:15 28.35103 113.76253 37083 ft 430 kts 203°
2026-04-22 16:16 28.30249 113.75028 37082 ft 430 kts 203°
2026-04-22 16:16 28.24420 113.73552 37097 ft 429 kts 204°
2026-04-22 16:17 28.18601 113.72080 37063 ft 428 kts 204°
2026-04-22 16:17 28.12788 113.70618 37072 ft 428 kts 203°
2026-04-22 16:18 28.06983 113.69160 37076 ft 427 kts 204°
2026-04-22 16:18 28.01185 113.67696 37076 ft 427 kts 204°
2026-04-22 16:19 27.95393 113.66234 37039 ft 426 kts 203°
2026-04-22 16:19 27.89607 113.64780 37055 ft 426 kts 203°
2026-04-22 16:20 27.83827 113.63332 37064 ft 425 kts 203°
2026-04-22 16:20 27.78052 113.61888 37070 ft 425 kts 203°
2026-04-22 16:21 27.72286 113.60448 37068 ft 425 kts 203°
2026-04-22 16:21 27.66517 113.59004 37055 ft 424 kts 204°
2026-04-22 16:22 27.57865 113.56839 37076 ft 425 kts 203°
2026-04-22 16:23 27.49204 113.54688 37080 ft 425 kts 203°
2026-04-22 16:23 27.43435 113.53248 37032 ft 425 kts 204°
2026-04-22 16:24 27.34768 113.51091 37056 ft 425 kts 204°
2026-04-22 16:25 27.28986 113.49658 37064 ft 426 kts 204°
2026-04-22 16:25 27.20313 113.47504 37076 ft 425 kts 204°
2026-04-22 16:26 27.14528 113.46067 37049 ft 426 kts 204°
2026-04-22 16:26 27.08776 113.44650 37059 ft 426 kts 204°
2026-04-22 16:27 27.02942 113.43210 37065 ft 427 kts 204°
2026-04-22 16:27 26.97147 113.41777 37078 ft 426 kts 204°
2026-04-22 16:28 26.91355 113.40351 37043 ft 426 kts 203°
2026-04-22 16:28 26.85562 113.38926 37046 ft 426 kts 203°
2026-04-22 16:29 26.79765 113.37499 37054 ft 427 kts 203°
2026-04-22 16:29 26.73964 113.36066 37060 ft 427 kts 203°
2026-04-22 16:30 26.68151 113.34645 37071 ft 428 kts 203°
2026-04-22 16:30 26.62335 113.33219 37036 ft 428 kts 203°
2026-04-22 16:31 26.56520 113.31791 37048 ft 428 kts 203°
2026-04-22 16:31 26.50696 113.30363 37052 ft 429 kts 203°
2026-04-22 16:32 26.44862 113.28936 37059 ft 429 kts 202°
2026-04-22 16:32 26.39025 113.27517 37064 ft 429 kts 202°
2026-04-22 16:33 26.33185 113.26095 37068 ft 430 kts 203°
2026-04-22 16:33 26.27349 113.24664 37076 ft 429 kts 203°
2026-04-22 16:34 26.21510 113.23236 37072 ft 430 kts 203°
2026-04-22 16:34 26.15669 113.21812 37077 ft 430 kts 202°
2026-04-22 16:35 26.09831 113.20392 37066 ft 430 kts 203°
2026-04-22 16:35 26.03986 113.18969 37059 ft 430 kts 202°
2026-04-22 16:36 25.98136 113.17553 37059 ft 430 kts 202°
2026-04-22 16:36 25.92284 113.16140 37061 ft 430 kts 202°
2026-04-22 16:37 25.86433 113.14730 37064 ft 430 kts 202°
2026-04-22 16:37 25.80581 113.13313 37025 ft 431 kts 202°
2026-04-22 16:38 25.74710 113.11894 37030 ft 433 kts 202°
2026-04-22 16:38 25.68829 113.10476 37051 ft 433 kts 202°
2026-04-22 16:39 25.62950 113.09056 37051 ft 433 kts 202°
2026-04-22 16:39 25.57059 113.07642 37053 ft 433 kts 202°
2026-04-22 16:40 25.51171 113.06224 37007 ft 433 kts 202°
2026-04-22 16:41 25.42358 113.04108 37007 ft 434 kts 202°
2026-04-22 16:41 25.36451 113.02691 37013 ft 434 kts 202°
2026-04-22 16:42 25.30547 113.01264 37008 ft 434 kts 202°
2026-04-22 16:42 25.24636 112.99840 36993 ft 435 kts 201°
2026-04-22 16:43 25.18717 112.98436 36990 ft 435 kts 201°
2026-04-22 16:43 25.12796 112.97031 37013 ft 435 kts 201°
2026-04-22 16:44 25.06876 112.95618 37003 ft 435 kts 201°
2026-04-22 16:44 25.00961 112.94205 36963 ft 435 kts 202°
2026-04-22 16:45 24.95036 112.92791 36978 ft 436 kts 201°
2026-04-22 16:45 24.89106 112.91374 36971 ft 436 kts 201°
2026-04-22 16:46 24.83174 112.89957 36969 ft 437 kts 201°
2026-04-22 16:46 24.77225 112.88550 36953 ft 436 kts 201°
2026-04-22 16:47 24.71288 112.87144 36941 ft 437 kts 201°
2026-04-22 16:47 24.66297 112.85959 36932 ft 438 kts 201°
2026-04-22 16:48 24.59372 112.84321 36943 ft 438 kts 201°
2026-04-22 16:48 24.53402 112.82910 36937 ft 439 kts 201°
2026-04-22 16:49 24.47432 112.81499 36944 ft 439 kts 201°
2026-04-22 16:49 24.41459 112.80087 36909 ft 439 kts 200°
2026-04-22 16:50 24.35477 112.78679 36929 ft 440 kts 200°
2026-04-22 16:50 24.29488 112.77269 36929 ft 440 kts 200°
2026-04-22 16:51 24.23503 112.75849 36940 ft 440 kts 200°
2026-04-22 16:51 24.17515 112.74440 36927 ft 440 kts 200°
2026-04-22 16:52 24.11527 112.73031 36907 ft 441 kts 199°
2026-04-22 16:52 24.05532 112.71622 36904 ft 441 kts 199°
2026-04-22 16:53 23.99530 112.70211 36897 ft 441 kts 199°
2026-04-22 16:53 23.93527 112.68801 36905 ft 442 kts 199°
2026-04-22 16:54 23.87515 112.67401 36872 ft 442 kts 199°
2026-04-22 16:54 23.81505 112.65996 36873 ft 442 kts 199°
2026-04-22 16:55 23.75489 112.64585 36870 ft 443 kts 199°
2026-04-22 16:55 23.69455 112.63173 36425 ft 446 kts 199°
2026-04-22 16:55 23.66399 112.62454 35456 ft 450 kts 199°
2026-04-22 16:56 23.63335 112.61736 34601 ft 452 kts 198°
2026-04-22 16:56 23.60290 112.61027 33745 ft 454 kts 198°
2026-04-22 16:56 23.57153 112.60299 32763 ft 456 kts 198°
2026-04-22 16:56 23.54085 112.59588 31746 ft 458 kts 198°
2026-04-22 16:57 23.50912 112.58853 30696 ft 461 kts 198°
2026-04-22 16:57 23.47769 112.58126 29799 ft 460 kts 198°
2026-04-22 16:57 23.45703 112.57651 29345 ft 455 kts 198°
2026-04-22 16:57 23.42628 112.56943 28646 ft 449 kts 198°
2026-04-22 16:58 23.39594 112.56241 27952 ft 443 kts 198°
2026-04-22 16:58 23.36600 112.55547 27269 ft 438 kts 198°
2026-04-22 16:58 23.33638 112.54858 26615 ft 433 kts 198°
2026-04-22 16:58 23.29763 112.53956 25742 ft 427 kts 198°
2026-04-22 16:59 23.27808 112.53500 25312 ft 424 kts 198°
2026-04-22 16:59 23.24933 112.52832 24673 ft 421 kts 198°
2026-04-22 16:59 23.22083 112.52169 24048 ft 417 kts 198°
2026-04-22 16:59 23.19255 112.51518 23423 ft 415 kts 197°
2026-04-22 17:00 23.16357 112.51304 22752 ft 423 kts 181°
2026-04-22 17:00 23.10855 112.53609 21622 ft 437 kts 146°
2026-04-22 17:00 23.08758 112.56021 20946 ft 445 kts 127°
2026-04-22 17:01 23.07416 112.59062 20267 ft 451 kts 108°
2026-04-22 17:01 23.06972 112.62425 19595 ft 452 kts 91°
2026-04-22 17:01 23.06964 112.65839 18905 ft 452 kts 90°
2026-04-22 17:01 23.06971 112.69248 18212 ft 452 kts 90°
2026-04-22 17:02 23.06977 112.72647 17635 ft 446 kts 90°
2026-04-22 17:02 23.06974 112.75995 17032 ft 442 kts 90°
2026-04-22 17:02 23.06956 112.79273 16438 ft 438 kts 91°
2026-04-22 17:02 23.06926 112.82608 15829 ft 432 kts 91°
2026-04-22 17:03 23.06892 112.85783 14952 ft 420 kts 91°
2026-04-22 17:03 23.06856 112.88879 14412 ft 403 kts 91°
2026-04-22 17:03 23.06823 112.91884 14229 ft 391 kts 91°
2026-04-22 17:03 23.06793 112.94781 14096 ft 378 kts 91°
2026-04-22 17:04 23.06767 112.97594 13925 ft 367 kts 91°
2026-04-22 17:04 23.06515 113.00320 13194 ft 362 kts 107°
2026-04-22 17:04 23.05674 113.02880 12241 ft 360 kts 114°
2026-04-22 17:04 23.04768 113.05405 11321 ft 358 kts 114°
2026-04-22 17:05 23.03865 113.07913 10428 ft 355 kts 114°
2026-04-22 17:05 23.02970 113.10394 9660 ft 349 kts 114°
2026-04-22 17:05 23.02105 113.12801 9101 ft 335 kts 114°
2026-04-22 17:05 23.01323 113.15125 8622 ft 321 kts 106°
2026-04-22 17:06 23.01234 113.17493 8149 ft 311 kts 79°
2026-04-22 17:06 23.02038 113.19598 7692 ft 298 kts 53°
2026-04-22 17:06 23.03500 113.21108 7113 ft 286 kts 27°
2026-04-22 17:06 23.05309 113.21864 6527 ft 276 kts 11°
2026-04-22 17:07 23.07174 113.22358 5936 ft 275 kts 10°
2026-04-22 17:07 23.09029 113.22846 5534 ft 273 kts 11°
2026-04-22 17:07 23.10865 113.23339 5178 ft 270 kts 11°
2026-04-22 17:07 23.12675 113.23827 4836 ft 265 kts 11°
2026-04-22 17:08 23.14415 113.24296 4512 ft 251 kts 11°
2026-04-22 17:08 23.16067 113.24741 4192 ft 240 kts 11°
2026-04-22 17:08 23.17678 113.25173 3883 ft 238 kts 11°
2026-04-22 17:08 23.19285 113.25605 3580 ft 237 kts 11°
2026-04-22 17:09 23.20877 113.26034 3289 ft 235 kts 12°
2026-04-22 17:09 23.22459 113.26460 2992 ft 233 kts 13°
2026-04-22 17:09 23.24027 113.26882 2686 ft 231 kts 12°
2026-04-22 17:09 23.25542 113.27291 2414 ft 216 kts 12°
2026-04-22 17:10 23.26935 113.27667 2122 ft 195 kts 12°
2026-04-22 17:10 23.28165 113.27999 1899 ft 170 kts 12°
2026-04-22 17:10 23.29246 113.28291 1686 ft 151 kts 12°
2026-04-22 17:10 23.30220 113.28553 1497 ft 137 kts 13°
2026-04-22 17:11 23.31143 113.28801 1318 ft 137 kts 13°
2026-04-22 17:11 23.32051 113.29045 1146 ft 133 kts 12°
2026-04-22 17:11 23.32948 113.29287 974 ft 134 kts 13°
2026-04-22 17:11 23.33857 113.29536 821 ft 135 kts 12°
2026-04-22 17:12 23.34765 113.29771 638 ft 134 kts 13°
2026-04-22 17:12 23.35673 113.30022 458 ft 134 kts 12°
2026-04-22 17:12 23.36577 113.30265 276 ft 133 kts 11°
2026-04-22 17:12 23.37470 113.30498 117 ft 132 kts 12°
2026-04-22 17:13 23.38315 113.30733 55 ft 111 kts 14°
2026-04-22 17:13 23.38892 113.30890 56 ft 61 kts 14°
2026-04-22 17:13 23.39187 113.30968 58 ft 38 kts
2026-04-22 17:13 23.39435 113.30926 55 ft 35 kts 345°
2026-04-22 17:14 23.39620 113.30888 56 ft 23 kts
2026-04-22 17:14 23.39778 113.30929 52 ft 24 kts 13°
2026-04-22 17:14 23.39943 113.30971 55 ft 27 kts 13°
2026-04-22 17:14 23.40132 113.31025 55 ft 13 kts
2026-04-22 17:15 23.40181 113.30992 55 ft 14 kts 297°
2026-04-22 17:15 23.40222 113.30838 55 ft 17 kts 288°
2026-04-22 17:15 23.40245 113.30726 58 ft 10 kts 261°
2026-04-22 17:15 23.40209 113.30686 59 ft 3 kts 219°
2026-04-22 17:16 23.40200 113.30679 57 ft 0 kts 219°